C/2021 QM45 ( PanSTARRS )

Japanese version
Home page
Updated on May 13, 2024

---------------------------------------------------------------------

* Profile

Discovery Date August 17, 2021
Magnitude 22.4 mag
Discoverer Pan-STARRS 1 telescope (Haleakala)

* Pictures

* Orbital Elements

Epoch 2022 Aug. 9.0 TT = JDT 2459800.5
T 2022 Aug. 13.43390 TT                                 Rudenko
q   2.7732548            (2000.0)            P               Q
z  +0.0028349      Peri.   72.80444     +0.37735461     -0.92534613
 +/-0.0000076      Node   354.58858     +0.63128319     +0.28593434
e   0.9921382      Incl.   22.82233     +0.67755814     +0.24894998
>From 269 observations 2021 Aug. 4-2022 Nov. 4, mean residual 0".7.

* Magnitudes Graph

        m1 = 8.5 + 5 log d + 15.0 log r

---------------------------------------------------------------------

The orbital elements are published on M.P.E.C. 2022-V95.
The magnitudes graphs are made with Comet for Windows.

---------------------------------------------------------------------

Copyright(C) Seiichi Yoshida (comet@aerith.net). All rights reserved.